{"data":{"norad_id":40055,"intl_designator":"2014-034C","name":"CANX-4","alt_names":[],"object_type":"PAYLOAD","status":"ACTIVE","operator":null,"country":"CA","launch_date":"2014-06-30","launch_site_code":"SRILR","launch_vehicle":null,"mission":null,"orbit_class":"UNKNOWN","rcs_meters":0.101,"size_class":null,"mass_kg":null,"dimensions":null,"purposes":["tech_demo"],"wikipedia_slug":null,"has_3d_model":false,"image_url":null,"decayed_at":null,"tle_current":{"epoch":"2026-05-25T02:48:11.754144Z","epoch_age_seconds":71928,"freshness":"FRESH","line1":"1 40055U 14034C   26145.11680271  .00000727  00000+0  10067-3 0  9992","line2":"2 40055  98.3152  19.5801 0014140  85.6837 274.5989 14.81214024641119","mean_motion":14.81214024,"eccentricity":0.001414,"inclination_deg":98.3152,"raan_deg":19.5801,"arg_perigee_deg":85.6837,"mean_anomaly_deg":274.5989,"bstar":0.00010067,"rev_number":64111,"period_min":97.217551053918,"perigee_km":615.5915333919,"apogee_km":635.39780375062,"semimajor_km":7003.6316685713,"source":"CELESTRAK","updated_at":"2026-05-25T13:38:25.523952Z"}}}